TEVEL-7 (51062 NORAD) Tracking and Keplerian Element Data

This shows tracking and keplerian element data for the satellite.

Feedback or suggestion? Click here.




ElementValue
Catalog51062
NameTEVEL-7
Epoch Orbit13363
Epoch Day160.15110616
Epoch Year2024
RAAN235.6468
Inclination97.378
Eccentricity0.000185
Argument of Perigee232.0748
Mean Anonmoly128.0345
Mean Motion15.65405328
Decay Rate0.002141
L11 51062U 22002CG 24160.15110616 .00214100 00000+0 20986-2 0 9998
L22 51062 97.3780 235.6468 0001850 232.0748 128.0345 15.65405328133632



Live tracking and technical data element details for TEVEL-7 (NORAD 51062). TEVEL-7 can be tracked NOW for your location showing map with azimuth and elevation plus other details from your city location.







IsCatalogInMostPopularTable: catalog: 51062, numindb: 85
Update: records affected: 1



GetName: 51062 TEVEL-7

Hit Count: updated at: Thu, 23 Jan 2025 17:13:26 GMT